Location: Hayward
(37.6688°N, 122.0808°W)
Time: 04:00:05
(UTC+00:00)

Daily predictions for brighter satellites

Satellite Brightness Start Highest point End
(mag) Time Altitude Azimuth Time Altitude Azimuth Time Altitude Azimuth
Cosmos 1833 4.2 02:36:04 10° SSW 02:41:46 78° ESE 02:47:28 10° NNE
YAOGAN 1 2.6 02:38:28 10° SSE 02:42:47 88° E 02:47:08 10° NNW
USA 116 4.2 02:39:26 10° N 02:43:31 66° WNW 02:47:05 10° SSW
Cosmos 405 3.4 02:41:30 10° N 02:44:50 41° ENE 02:48:09 10° SSE
SL-16 R/B 2.8 02:39:52 10° NNW 02:45:29 63° WSW 02:51:03 10° S
COSMOS 2455 3.7 02:42:10 10° N 02:47:34 33° NE 02:52:56 10° ESE
Cosmos 1544 4.5 02:46:13 10° SE 02:48:42 18° E 02:51:12 10° NE
Cosmos 1939 Rocket 3.2 02:45:10 10° SE 02:48:48 41° ENE 02:52:27 10° N
Cosmos 1025 Rocket 3.9 02:46:21 10° NNE 02:50:02 28° ENE 02:53:42 10° SE
SAR-Lupe-2 4.1 02:54:20 10° NNE 02:57:39 35° E 03:00:56 10° SSE
Timation 2 Rocket 4.1 02:51:38 10° S 02:58:12 63° ESE 03:04:34 10° NNE
Genesis I 3.2 02:54:48 10° NNW 02:58:42 64° ENE 03:02:30 10° SE
Cosmos 2151 Rocket 3.5 02:55:16 10° S 02:59:39 70° E 03:04:02 10° NNE
Nadezhda 1 Rocket 4.2 02:58:06 10° SSE 03:03:47 43° E 03:09:28 10° NNE
USA 186 3.4 03:02:38 15° ESE 03:04:07 19° ENE 03:06:33 10° NNE
Cosmos 2333 Rocket 3.3 02:59:31 10° N 03:04:16 26° ENE 03:07:59 14° ESE
Cosmos 1707 4.5 03:05:23 10° NE 03:07:36 14° ENE 03:08:04 14° E
Cosmos 1300 Rocket 3.6 03:06:36 10° S 03:10:55 84° W 03:15:14 10° N
MOS 1 4.4 03:12:23 10° SSE 03:17:57 59° ENE 03:23:32 10° N
Lacrosse 4 Rocket 2.6 03:15:14 10° NW 03:19:03 40° WSW 03:22:49 10° S
Cosmos 1975 4.1 03:15:18 10° SSW 03:19:06 44° W 03:22:55 10° N
CZ-2D R/B 3.7 03:15:49 10° S 03:19:34 62° WSW 03:23:21 10° NNW
Meteor 2-15 Rocket 4.4 03:14:49 10° S 03:20:51 64° E 03:26:55 10° NNE
Cosmos 2237 Rocket 4.0 03:17:48 10° NNE 03:20:51 14° NE 03:22:28 13° ENE
Cosmos 1378 3.1 03:18:13 10° N 03:21:59 88° W 03:25:44 10° S
H-2A R/B 3.0 03:20:21 20° ESE 03:22:21 25° ENE 03:26:23 10° NNE
Aureole 1 Rocket 3.7 03:17:42 10° N 03:22:39 40° ENE 03:24:52 23° ESE
Meteor 2-15 4.4 03:16:40 10° S 03:22:47 83° E 03:28:57 10° N
SL-8 R/B 4.5 03:19:49 10° WSW 03:24:28 51° NNW 03:29:09 10° NE
GEOS 3 Rocket 3.6 03:22:10 10° SSE 03:27:17 82° SW 03:32:25 10° NW
SJ-11-01 4.4 03:25:24 11° SSE 03:29:48 55° ENE 03:34:27 10° N
GPS 2-05 Rocket1 2.8 03:30:15 10° W 03:32:53 43° S 03:33:15 40° SSE
Cosmos 1461 3.0 03:29:08 10° SW 03:33:10 71° WNW 03:37:09 10° NNE
Cosmos 2251 Rocket 3.5 03:28:14 10° NNW 03:33:39 80° ENE 03:38:40 12° SSE
DELTA 2 R/B (1) 4.4 03:33:58 10° SSW 03:38:51 32° SSE 03:40:13 28° ESE
Meteor 1-12 Rocket 4.4 03:33:27 10° SSW 03:39:14 79° W 03:44:57 10° N
Resurs 01 Rocket 3.2 03:40:10 19° ENE 03:40:10 19° ENE 03:42:54 10° NNE
Cosmos 2322 Rocket 4.5 03:35:29 10° NW 03:39:50 24° W 03:44:11 10° SSW
Iridium 96 4.5 03:37:59 17° SSE 03:40:36 63° E 03:44:22 10° N
Cosmos 1842 4.0 03:39:12 10° NNW 03:43:04 54° W 03:46:54 10° S
Cosmos 2074 Rocket 4.3 03:37:02 10° NNW 03:43:15 70° W 03:49:23 10° S
Cosmos 2333 4.1 03:42:15 10° NNW 03:47:57 86° ENE 03:51:49 22° SSE
Okean 1 Rocket 3.1 03:45:15 10° S 03:49:33 76° W 03:53:55 10° N
GP-B 4.3 03:50:23 10° NNW 03:54:36 44° W 03:58:48 10° SSW
CZ-2C R/B 3.9 03:54:29 31° ENE 03:54:38 31° ENE 03:59:16 10° N
COSMOS 2428 2.6 03:49:46 10° NNW 03:55:26 68° ENE 03:57:47 36° SE
Meteor 1-15 Rocket 4.3 03:50:06 10° S 03:55:38 55° E 04:01:18 10° NNE
Cosmos 2322 4.2 03:54:29 10° NNW 04:00:08 61° WSW 04:04:42 16° S
Cosmos 2154 Rocket 4.0 03:56:19 10° N 04:02:32 84° W 04:08:43 10° S
Cosmos 2219 Rocket 2.0 03:56:56 10° NNW 04:02:33 76° ENE 04:04:34 41° SE
ASTEX 1 3.8 04:00:27 10° N 04:05:17 63° W 04:10:06 10° SSW
Cosmos 2360 Rocket 4.1 04:07:46 10° NW 04:12:23 27° WSW 04:17:02 10° SSW
ATLAS 2AS CENTAUR R/B 2.7 04:07:53 10° NNW 04:15:30 74° NE 04:17:48 46° SE
Cosmos 2219 3.1 04:10:42 10° SSW 04:16:26 83° ESE 04:22:13 10° NNE
ADEOS Rocket 3.4 04:09:24 10° NNE 04:16:46 84° ESE 04:24:32 10° SSW
Cosmos 2227 Rocket 3.9 04:24:02 19° NE 04:24:02 19° NE 04:25:40 10° NNE
Cosmos 2056 Rocket 3.5 04:20:49 66° E 04:20:49 66° E 04:26:01 10° NNE
SL-8 Rocket 3.9 04:16:24 10° N 04:22:30 57° E 04:22:51 56° E
SJ-6B 4.0 04:22:02 31° SW 04:23:28 42° W 04:27:24 10° NNW
Okean 1-7 Rocket 4.2 04:20:17 10° N 04:23:32 47° NNE 04:23:32 47° NNE
SPOT 3 Rocket 4.3 04:26:29 25° SSW 04:29:15 49° W 04:34:15 10° NNW
Cosmos 1892 Rocket 4.3 04:25:03 10° N 04:28:14 46° N 04:28:14 46° N
Cosmos 2297 Rocket 3.5 04:34:39 27° NE 04:34:39 27° NE 04:37:12 10° NNE
Cosmos 1624 Rocket 4.0 04:34:00 69° NNE 04:34:00 69° NNE 04:38:35 10° NNE
COSMOS 2455 4.0 04:28:00 10° NW 04:33:30 38° WSW 04:36:39 22° SSW
Cosmos 407 Rocket 3.9 04:29:12 10° N 04:33:16 50° NNE 04:33:16 50° NNE
USA 186 4.4 04:34:24 18° WSW 04:34:55 19° W 04:37:23 10° NW
ARGOS 3.4 04:36:10 49° SSW 04:37:24 64° W 04:42:44 10° NNW
Cosmos 1707 4.4 04:40:03 10° NNW 04:43:16 32° W 04:43:16 32° W
Cosmos 614 Rocket 4.5 04:41:02 10° NNW 04:45:02 52° N 04:45:02 52° N
Meteor 2-5 Rocket 4.0 04:41:27 10° N 04:46:17 60° NNE 04:46:17 60° NNE
SL-08 RB Rocket 4.4 04:48:25 52° NW 04:48:25 52° NW 04:52:13 10° NNW
Cosmos 2333 Rocket 3.2 04:43:19 10° NW 04:48:39 42° WSW 04:50:02 36° SW
Meteor 2-17 Rocket 4.4 04:43:41 10° N 04:49:45 76° W 04:50:14 71° SW
H-2A R/B 3.4 05:00:59 30° WSW 05:01:37 32° W 05:06:01 10° NW
Cosmos 2237 Rocket 2.7 04:59:55 10° NNW 05:04:18 55° NNW 05:04:18 55° NNW
Cosmos 1980 4.5 05:08:26 10° NNW 05:12:38 48° NW 05:12:38 48° NW
Resurs 01 Rocket 3.8 05:17:45 24° NW 05:17:45 24° NW 05:19:59 10° NNW
NOSS 3-4 (A) 4.1 05:15:30 10° NW 05:22:25 63° WSW 05:22:25 63° WSW
NOSS 3-4 (C) 4.1 05:15:36 10° NW 05:22:29 64° WSW 05:22:29 64° WSW
SL-16 R/B 3.9 05:28:00 10° NNW 05:30:34 27° N 05:30:34 27° N
FALCON 9 R/B 4.3 05:32:34 10° W 06:03:23 61° SW 06:03:23 61° SW
Cosmos 2227 Rocket 4.4 06:05:43 21° NW 06:05:43 21° NW 06:08:56 10° N
CENTAUR R/B 4.2 10:26:15 22° ESE 10:26:15 22° ESE 10:30:35 10° ENE
ADEOS II 3.9 10:25:32 10° NNE 10:27:57 27° NNE 10:27:57 27° NNE
USA 238 DEB 4.2 10:36:26 55° NE 10:36:26 55° NE 10:41:41 10° NE
USA 238 4.2 10:36:32 55° NE 10:36:32 55° NE 10:41:49 10° NE
Resurs 1-4 Rocket 4.5 10:33:32 10° N 10:34:28 15° N 10:34:28 15° N
Cosmos 1943 Rocket 3.3 10:49:11 37° E 10:49:11 37° E 10:53:26 10° NE
CZ-2D R/B 4.4 11:00:51 10° NNW 11:01:32 13° NNW 11:01:32 13° NNW
Atlas Centaur 2 3.2 11:15:57 45° SSE 11:15:57 45° SSE 11:22:59 10° ESE
USA 215 3.8 11:12:53 10° NE 11:19:12 50° SE 11:20:43 42° SSE
NOSS 3-2 (A) 3.6 11:21:55 56° NNW 11:21:55 56° NNW 11:27:39 10° NNE
NOSS 3-2 (C) 3.2 11:22:51 87° NNW 11:22:51 87° NNW 11:29:11 10° NNE
Lacrosse 5 rocket 4.1 11:26:01 10° N 11:28:53 17° NNE 11:31:50 10° ENE
Cosmos 1869 Rocket 4.4 11:24:29 10° N 11:27:47 46° NNE 11:27:47 46° NNE
Cosmos 967 Rocket 4.4 11:24:24 10° NNW 11:30:52 88° WSW 11:37:21 10° SSE
ATLAS 3B R/B 2.6 11:29:55 57° S 11:31:20 78° ESE 11:37:55 10° NE
Unknown 4.4 11:34:55 49° ENE 11:34:55 49° ENE 11:38:02 10° NE
Hubble Space Telescope 3.2 11:36:31 14° SE 11:36:31 14° SE 11:37:37 10° SE
Unknown 4.4 11:36:01 50° ENE 11:36:01 50° ENE 11:39:14 10° NE
Cosmos 2369 Rocket 2.0 11:34:47 78° SW 11:35:12 87° WNW 11:40:56 10° NNE
Unknown 4.2 11:39:14 55° ENE 11:39:14 55° ENE 11:42:35 10° NE
Unknown 4.1 11:40:51 58° ENE 11:40:51 58° ENE 11:44:16 10° NE
BREEZE-M DEB (TANK) 4.0 11:39:18 30° NNW 11:41:01 48° NE 11:51:29 10° ESE
ARIANE 5 R/B 4.0 11:37:18 10° N 11:39:48 23° NNW 11:39:48 23° NNW
Unknown 4.0 11:42:38 60° NE 11:42:38 60° NE 11:46:05 10° NE
Nadezhda 4 Rocket 3.8 11:41:51 60° SW 11:42:48 70° W 11:48:56 10° N
Unknown 3.9 11:44:02 64° ENE 11:44:02 64° ENE 11:47:34 10° NE
Meteor 1-20 Rocket 4.0 11:38:17 10° NNW 11:43:44 71° W 11:44:10 67° SW
Unknown 3.9 11:45:38 66° NE 11:45:38 66° NE 11:49:14 10° NE
Cosmos 836 Rocket 4.3 11:47:04 71° WSW 11:47:32 77° WNW 11:52:46 10° NNE
Unknown 3.7 11:48:48 71° NE 11:48:48 71° NE 11:52:32 10° NE
Unknown 3.7 11:50:23 74° NNE 11:50:23 74° NNE 11:54:12 10° NE
Cosmos 1656 Rocket 4.4 11:47:47 21° S 11:51:23 52° ESE 11:56:53 10° NNE
Unknown 3.6 11:51:59 75° NNE 11:51:59 75° NNE 11:55:51 10° NE
Unknown 3.7 11:53:04 66° N 11:53:04 66° N 11:56:49 10° NE
Unknown 3.6 11:53:36 75° N 11:53:36 75° N 11:57:32 10° NE
Unknown 3.9 11:54:26 53° NNW 11:54:26 53° NNW 11:58:01 10° NE
